Lewiston, ID

11:52 AM PDT on July 28, 2016 (GMT -0700)
Lewiston-Nez Perce County

Weather History for KLWS - October, 2011

Change the Weather History Date:

Friday, October 21, 2011

  Actual Average Record
Temperature  
Mean Temperature 52 °F 50 °F  
Max Temperature 59 °F 60 °F 83 °F (2003)
Min Temperature 45 °F 40 °F 24 °F (1949)
Degree Days  
Heating Degree Days 13 15  
Month to date heating degree days 206 238  
Since 1 July heating degree days 230 352  
Cooling Degree Days 0 0  
Month to date cooling degree days 8 1  
Year to date cooling degree days 742 805  
Growing Degree Days 2 (Base 50)    
Moisture  
Dew Point 48 °F    
Average Humidity 80    
Maximum Humidity 93    
Minimum Humidity 67    
Precipitation  
Precipitation 0.01 in 0.03 in 0.43 in (1975)
Month to date precipitation 0.96 0.60  
Year to date precipitation 11.87 9.80  
Snow  
Snow 0.00 in 0.00 in 0.00 in (1995)
Month to date snowfall 0.0 0.0  
Since 1 July snowfall 0.0 0.0  
Since 1 September snowfall 0.0 0.0  
Snow Depth 0.00 in    
Sea Level Pressure  
Sea Level Pressure 30.17 in    
Wind  
Wind Speed 2 mph (East)    
Max Wind Speed 7 mph    
Max Gust Speed 8 mph    
Visibility 8 miles    
Events Rain    
T = Trace of Precipitation, MM = Missing Value Source: NWS Daily Summary

Daily Weather History Graph

Daily Weather History Graph

Search for Another Location

Airport or City:

Trip Planner

Search our weather history database for the weather conditions in past years. The results will help you decide how hot, cold, wet, or windy it might be!

Date:

Astronomy

Oct. 21, 2011 Rise Set
Actual Time 7:13 AM PDT 5:51 PM PDT
Civil Twilight 6:42 AM PDT 6:21 PM PDT
Nautical Twilight 6:07 AM PDT 6:56 PM PDT
Astronomical Twilight 5:32 AM PDT 7:31 PM PDT
Moon 12:48 AM PDT (10/21) 2:56 PM PDT (10/21)
Length of Visible Light 11h 39m
Length of Day
10h 37m
Waning Crescent, 32% of the Moon is Illuminated
Oct 21
Waning Crescent
Oct 26
New
Nov 2
First Quarter
Nov 10
Full
Nov 18
Last Quarter

Hourly Weather History & Observations

Time (PDT) Temp. Windchill Dew Point Humidity Pressure Visibility Wind Dir Wind Speed Gust Speed Precip Events Conditions
12:56 AM 53.1 °F - 45.0 °F 74% 30.11 in 9.0 mi ESE 4.6 mph - N/A   Overcast
1:56 AM 54.0 °F - 46.0 °F 75% 30.11 in 10.0 mi NE 6.9 mph - N/A   Overcast
2:56 AM 50.0 °F - 45.0 °F 83% 30.12 in 10.0 mi East 4.6 mph - N/A   Scattered Clouds
3:56 AM 50.0 °F - 46.0 °F 86% 30.13 in 10.0 mi North 3.5 mph - N/A   Overcast
4:56 AM 48.0 °F - 45.0 °F 89% 30.14 in 8.0 mi Calm Calm - N/A   Clear
5:56 AM 46.9 °F - 45.0 °F 93% 30.15 in 9.0 mi East 3.5 mph - N/A   Clear
6:56 AM 46.0 °F 43.9 °F 43.0 °F 89% 30.16 in 9.0 mi SE 4.6 mph - N/A   Clear
7:56 AM 46.9 °F - 45.0 °F 93% 30.17 in 6.0 mi Calm Calm - N/A   Clear
8:56 AM 50.0 °F - 46.9 °F 89% 30.18 in 6.0 mi Calm Calm - N/A   Overcast
9:56 AM 52.0 °F - 48.0 °F 86% 30.18 in 6.0 mi Calm Calm - N/A   Overcast
10:56 AM 53.1 °F - 48.0 °F 83% 30.19 in 7.0 mi NW 3.5 mph - N/A   Mostly Cloudy
11:56 AM 55.0 °F - 48.0 °F 77% 30.19 in 7.0 mi NNW 4.6 mph - N/A   Overcast
12:56 PM 59.0 °F - 48.0 °F 67% 30.17 in 8.0 mi Calm Calm - N/A   Partly Cloudy
1:56 PM 57.0 °F - 50.0 °F 77% 30.18 in 8.0 mi West 3.5 mph - 0.01 in Rain Light Rain
2:56 PM 57.9 °F - 48.9 °F 72% 30.18 in 10.0 mi SSE 5.8 mph - 0.00 in   Scattered Clouds
3:56 PM 59.0 °F - 50.0 °F 72% 30.18 in 9.0 mi Calm Calm - N/A   Overcast
4:56 PM 59.0 °F - 51.1 °F 75% 30.17 in 9.0 mi East 4.6 mph - N/A   Overcast
5:56 PM 57.0 °F - 50.0 °F 77% 30.18 in 9.0 mi Calm Calm - N/A   Overcast
6:56 PM 55.9 °F - 50.0 °F 80% 30.19 in 9.0 mi Calm Calm - N/A   Mostly Cloudy
7:56 PM 55.0 °F - 51.1 °F 86% 30.21 in 7.0 mi Calm Calm - N/A   Overcast
8:56 PM 54.0 °F - 48.9 °F 83% 30.21 in 10.0 mi SE 4.6 mph - N/A   Scattered Clouds
9:56 PM 53.1 °F - 48.9 °F 86% 30.21 in 8.0 mi Calm Calm - N/A   Mostly Cloudy
10:56 PM 51.1 °F - 48.9 °F 92% 30.22 in 5.0 mi Calm Calm - N/A   Partly Cloudy
11:56 PM 50.0 °F - 48.0 °F 93% 30.22 in 5.0 mi South 3.5 mph - N/A   Partly Cloudy